Year,Month,Day,Hour,Minute,Value (Times are PST for temperature in C)
2010,04,15,00,00,6.70
2010,04,15,00,01,6.70
2010,04,15,00,02,6.70
2010,04,15,00,03,6.70
2010,04,15,00,04,6.70
2010,04,15,00,05,6.80
2010,04,15,00,06,6.80
2010,04,15,00,07,6.80
2010,04,15,00,08,6.80
2010,04,15,00,09,6.80
2010,04,15,00,10,6.80
2010,04,15,00,11,6.80
2010,04,15,00,12,6.80
2010,04,15,00,13,6.70
2010,04,15,00,14,6.70
2010,04,15,00,15,6.80
2010,04,15,00,16,6.80
2010,04,15,00,17,6.80
2010,04,15,00,18,6.80
2010,04,15,00,19,6.80
2010,04,15,00,20,6.80
2010,04,15,00,21,6.80
2010,04,15,00,22,6.80
2010,04,15,00,23,6.80
2010,04,15,00,24,6.80
2010,04,15,00,25,6.80
2010,04,15,00,26,6.90
2010,04,15,00,27,6.90
2010,04,15,00,28,6.90
2010,04,15,00,29,6.90
2010,04,15,00,30,6.90
2010,04,15,00,31,6.90
2010,04,15,00,32,6.90
2010,04,15,00,33,6.90
2010,04,15,00,34,6.90
2010,04,15,00,35,6.90
2010,04,15,00,36,6.90
2010,04,15,00,37,6.80
2010,04,15,00,38,6.80
2010,04,15,00,39,6.80
2010,04,15,00,40,6.80
2010,04,15,00,41,6.80
2010,04,15,00,42,6.80
2010,04,15,00,43,6.80
2010,04,15,00,44,6.70
2010,04,15,00,45,6.70
2010,04,15,00,46,6.70
2010,04,15,00,47,6.70
2010,04,15,00,48,6.60
2010,04,15,00,49,6.60
2010,04,15,00,50,6.60
2010,04,15,00,51,6.50
2010,04,15,00,52,6.50
2010,04,15,00,53,6.50
2010,04,15,00,54,6.60
2010,04,15,00,55,6.60
2010,04,15,00,56,6.60
2010,04,15,00,57,6.60
2010,04,15,00,58,6.60
2010,04,15,00,59,6.60
2010,04,15,01,00,6.60
2010,04,15,01,01,6.60
2010,04,15,01,02,6.60
2010,04,15,01,03,6.60
2010,04,15,01,04,6.60
2010,04,15,01,05,6.60
2010,04,15,01,06,6.70
2010,04,15,01,07,6.70
2010,04,15,01,08,6.70
2010,04,15,01,09,6.80
2010,04,15,01,10,6.80
2010,04,15,01,11,6.80
2010,04,15,01,12,6.80
2010,04,15,01,13,6.80
2010,04,15,01,14,6.70
2010,04,15,01,15,6.70
2010,04,15,01,16,6.70
2010,04,15,01,17,6.70
2010,04,15,01,18,6.60
2010,04,15,01,19,6.60
2010,04,15,01,20,6.60
2010,04,15,01,21,6.60
2010,04,15,01,22,6.60
2010,04,15,01,23,6.60
2010,04,15,01,24,6.60
2010,04,15,01,25,6.60
2010,04,15,01,26,6.60
2010,04,15,01,27,6.60
2010,04,15,01,28,6.60
2010,04,15,01,29,6.60
2010,04,15,01,30,6.60
2010,04,15,01,31,6.60
2010,04,15,01,32,6.60
2010,04,15,01,33,6.60
2010,04,15,01,34,6.60
2010,04,15,01,35,6.70
2010,04,15,01,36,6.70
2010,04,15,01,37,6.70
2010,04,15,01,38,6.70
2010,04,15,01,39,6.70
2010,04,15,01,40,6.70
2010,04,15,01,41,6.70
2010,04,15,01,42,6.70
2010,04,15,01,43,6.70
2010,04,15,01,44,6.80
2010,04,15,01,45,6.90
2010,04,15,01,46,6.90
2010,04,15,01,47,6.90
2010,04,15,01,48,7.00
2010,04,15,01,49,6.90
2010,04,15,01,50,6.90
2010,04,15,01,51,6.90
2010,04,15,01,52,6.90
2010,04,15,01,53,6.90
2010,04,15,01,54,6.80
2010,04,15,01,55,6.80
2010,04,15,01,56,6.80
2010,04,15,01,57,6.80
2010,04,15,01,58,6.80
2010,04,15,01,59,6.80
2010,04,15,02,00,6.80
2010,04,15,02,01,6.80
2010,04,15,02,02,6.80
2010,04,15,02,03,6.80
2010,04,15,02,04,6.80
2010,04,15,02,05,6.80
2010,04,15,02,06,6.80
2010,04,15,02,07,6.80
2010,04,15,02,08,6.80
2010,04,15,02,09,6.80
2010,04,15,02,10,6.80
2010,04,15,02,11,6.80
2010,04,15,02,12,6.80
2010,04,15,02,13,6.90
2010,04,15,02,14,7.00
2010,04,15,02,15,7.00
2010,04,15,02,16,7.10
2010,04,15,02,17,7.10
2010,04,15,02,18,7.20
2010,04,15,02,19,7.20
2010,04,15,02,20,7.20
2010,04,15,02,21,7.20
2010,04,15,02,22,7.30
2010,04,15,02,23,7.30
2010,04,15,02,24,7.30
2010,04,15,02,25,7.40
2010,04,15,02,26,7.40
2010,04,15,02,27,7.40
2010,04,15,02,28,7.40
2010,04,15,02,29,7.40
2010,04,15,02,30,7.40
2010,04,15,02,31,7.40
2010,04,15,02,32,7.40
2010,04,15,02,33,7.40
2010,04,15,02,34,7.40
2010,04,15,02,35,7.40
2010,04,15,02,36,7.40
2010,04,15,02,37,7.30
2010,04,15,02,38,7.30
2010,04,15,02,39,7.30
2010,04,15,02,40,7.30
2010,04,15,02,41,7.30
2010,04,15,02,42,7.30
2010,04,15,02,43,7.30
2010,04,15,02,44,7.30
2010,04,15,02,45,7.30
2010,04,15,02,46,7.30
2010,04,15,02,47,7.30
2010,04,15,02,48,7.20
2010,04,15,02,49,7.20
2010,04,15,02,50,7.20
2010,04,15,02,51,7.20
2010,04,15,02,52,7.20
2010,04,15,02,53,7.10
2010,04,15,02,54,7.10
2010,04,15,02,55,7.10
2010,04,15,02,56,7.10
2010,04,15,02,57,7.00
2010,04,15,02,58,7.00
2010,04,15,02,59,6.90
2010,04,15,03,00,6.90
2010,04,15,03,01,6.90
2010,04,15,03,02,6.80
2010,04,15,03,03,6.80
2010,04,15,03,04,6.80
2010,04,15,03,05,6.80
2010,04,15,03,06,6.70
2010,04,15,03,07,6.70
2010,04,15,03,08,6.70
2010,04,15,03,09,6.70
2010,04,15,03,10,6.70
2010,04,15,03,11,6.60
2010,04,15,03,12,6.60
2010,04,15,03,13,6.60
2010,04,15,03,14,6.60
2010,04,15,03,15,6.70
2010,04,15,03,16,6.70
2010,04,15,03,17,6.70
2010,04,15,03,18,6.70
2010,04,15,03,19,6.60
2010,04,15,03,20,6.60
2010,04,15,03,21,6.60
2010,04,15,03,22,6.50
2010,04,15,03,23,6.50
2010,04,15,03,24,6.40
2010,04,15,03,25,6.40
2010,04,15,03,26,6.40
2010,04,15,03,27,6.40
2010,04,15,03,28,6.40
2010,04,15,03,29,6.40
2010,04,15,03,30,6.40
2010,04,15,03,31,6.30
2010,04,15,03,32,6.30
2010,04,15,03,33,6.30
2010,04,15,03,34,6.30
2010,04,15,03,35,6.30
2010,04,15,03,36,6.20
2010,04,15,03,37,6.20
2010,04,15,03,38,6.20
2010,04,15,03,39,6.20
2010,04,15,03,40,6.20
2010,04,15,03,41,6.20
2010,04,15,03,42,6.20
2010,04,15,03,43,6.20
2010,04,15,03,44,6.20
2010,04,15,03,45,6.20
2010,04,15,03,46,6.20
2010,04,15,03,47,6.20
2010,04,15,03,48,6.20
2010,04,15,03,49,6.10
2010,04,15,03,50,6.10
2010,04,15,03,51,6.10
2010,04,15,03,52,6.00
2010,04,15,03,53,6.00
2010,04,15,03,54,6.00
2010,04,15,03,55,5.90
2010,04,15,03,56,5.90
2010,04,15,03,57,5.90
2010,04,15,03,58,5.90
2010,04,15,03,59,5.90
2010,04,15,04,00,5.90
2010,04,15,04,01,5.90
2010,04,15,04,02,5.90
2010,04,15,04,03,5.90
2010,04,15,04,04,5.80
2010,04,15,04,05,5.80
2010,04,15,04,06,5.80
2010,04,15,04,07,5.80
2010,04,15,04,08,5.80
2010,04,15,04,09,5.80
2010,04,15,04,10,5.80
2010,04,15,04,11,5.80
2010,04,15,04,12,5.70
2010,04,15,04,13,5.70
2010,04,15,04,14,5.70
2010,04,15,04,15,5.70
2010,04,15,04,16,5.70
2010,04,15,04,17,5.70
2010,04,15,04,18,5.60
2010,04,15,04,19,5.60
2010,04,15,04,20,5.60
2010,04,15,04,21,5.60
2010,04,15,04,22,5.50
2010,04,15,04,23,5.50
2010,04,15,04,24,5.50
2010,04,15,04,25,5.50
2010,04,15,04,26,5.50
2010,04,15,04,27,5.50
2010,04,15,04,28,5.50
2010,04,15,04,29,5.60
2010,04,15,04,30,5.60
2010,04,15,04,31,5.60
2010,04,15,04,32,5.60
2010,04,15,04,33,5.60
2010,04,15,04,34,5.60
2010,04,15,04,35,5.60
2010,04,15,04,36,5.70
2010,04,15,04,37,5.70
2010,04,15,04,38,5.60
2010,04,15,04,39,5.60
2010,04,15,04,40,5.60
2010,04,15,04,41,5.60
2010,04,15,04,42,5.60
2010,04,15,04,43,5.50
2010,04,15,04,44,5.50
2010,04,15,04,45,5.50
2010,04,15,04,46,5.50
2010,04,15,04,47,5.50
2010,04,15,04,48,5.50
2010,04,15,04,49,5.50
2010,04,15,04,50,5.50
2010,04,15,04,51,5.60
2010,04,15,04,52,5.60
2010,04,15,04,53,5.60
2010,04,15,04,54,5.60
2010,04,15,04,55,5.60
2010,04,15,04,56,5.50
2010,04,15,04,57,5.50
2010,04,15,04,58,5.50
2010,04,15,04,59,5.50
2010,04,15,05,00,5.60
2010,04,15,05,01,5.60
2010,04,15,05,02,5.60
2010,04,15,05,03,5.60
2010,04,15,05,04,5.60
2010,04,15,05,05,5.60
2010,04,15,05,06,5.60
2010,04,15,05,07,5.60
2010,04,15,05,08,5.60
2010,04,15,05,09,5.60
2010,04,15,05,10,5.60
2010,04,15,05,11,5.60
2010,04,15,05,12,5.60
2010,04,15,05,13,5.60
2010,04,15,05,14,5.60
2010,04,15,05,15,5.60
2010,04,15,05,16,5.60
2010,04,15,05,17,5.60
2010,04,15,05,18,5.60
2010,04,15,05,19,5.60
2010,04,15,05,20,5.60
2010,04,15,05,21,5.60
2010,04,15,05,22,5.60
2010,04,15,05,23,5.60
2010,04,15,05,24,5.60
2010,04,15,05,25,5.60
2010,04,15,05,26,5.60
2010,04,15,05,27,5.60
2010,04,15,05,28,5.50
2010,04,15,05,29,5.50
2010,04,15,05,30,5.50
2010,04,15,05,31,5.50
2010,04,15,05,32,5.50
2010,04,15,05,33,5.40
2010,04,15,05,34,5.40
2010,04,15,05,35,5.40
2010,04,15,05,36,5.40
2010,04,15,05,37,5.40
2010,04,15,05,38,5.40
2010,04,15,05,39,5.40
2010,04,15,05,40,5.30
2010,04,15,05,41,5.30
2010,04,15,05,42,5.30
2010,04,15,05,43,5.30
2010,04,15,05,44,5.30
2010,04,15,05,45,5.30
2010,04,15,05,46,5.30
2010,04,15,05,47,5.30
2010,04,15,05,48,5.30
2010,04,15,05,49,5.30
2010,04,15,05,50,5.30
2010,04,15,05,51,5.30
2010,04,15,05,52,5.30
2010,04,15,05,53,5.30
2010,04,15,05,54,5.20
2010,04,15,05,55,5.20
2010,04,15,05,56,5.20
2010,04,15,05,57,5.10
2010,04,15,05,58,5.10
2010,04,15,05,59,5.10
2010,04,15,06,00,5.10
2010,04,15,06,01,5.00
2010,04,15,06,02,5.00
2010,04,15,06,03,5.00
2010,04,15,06,04,4.90
2010,04,15,06,05,4.90
2010,04,15,06,06,4.90
2010,04,15,06,07,4.90
2010,04,15,06,08,4.90
2010,04,15,06,09,4.90
2010,04,15,06,10,4.90
2010,04,15,06,11,4.90
2010,04,15,06,12,4.90
2010,04,15,06,13,4.90
2010,04,15,06,14,4.90
2010,04,15,06,15,4.80
2010,04,15,06,16,4.80
2010,04,15,06,17,4.80
2010,04,15,06,18,4.80
2010,04,15,06,19,4.70
2010,04,15,06,20,4.70
2010,04,15,06,21,4.70
2010,04,15,06,22,4.70
2010,04,15,06,23,4.70
2010,04,15,06,24,4.70
2010,04,15,06,25,4.70
2010,04,15,06,26,4.70
2010,04,15,06,27,4.70
2010,04,15,06,28,4.60
2010,04,15,06,29,4.60
2010,04,15,06,30,4.60
2010,04,15,06,31,4.70
2010,04,15,06,32,4.70
2010,04,15,06,33,4.70
2010,04,15,06,34,4.70
2010,04,15,06,35,4.70
2010,04,15,06,36,4.80
2010,04,15,06,37,4.90
2010,04,15,06,38,4.90
2010,04,15,06,39,5.00
2010,04,15,06,40,5.00
2010,04,15,06,41,5.00
2010,04,15,06,42,4.90
2010,04,15,06,43,4.90
2010,04,15,06,44,4.90
2010,04,15,06,45,4.90
2010,04,15,06,46,4.80
2010,04,15,06,47,4.80
2010,04,15,06,48,4.80
2010,04,15,06,49,4.70
2010,04,15,06,50,4.70
2010,04,15,06,51,4.70
2010,04,15,06,52,4.70
2010,04,15,06,53,4.70
2010,04,15,06,54,4.70
2010,04,15,06,55,4.70
2010,04,15,06,56,4.70
2010,04,15,06,57,4.70
2010,04,15,06,58,4.70
2010,04,15,06,59,4.60
2010,04,15,07,00,4.60
2010,04,15,07,01,4.60
2010,04,15,07,02,4.60
2010,04,15,07,03,4.60
2010,04,15,07,04,4.60
2010,04,15,07,05,4.60
2010,04,15,07,06,4.60
2010,04,15,07,07,4.60
2010,04,15,07,08,4.60
2010,04,15,07,09,4.60
2010,04,15,07,10,4.60
2010,04,15,07,11,4.60
2010,04,15,07,12,4.60
2010,04,15,07,13,4.60
2010,04,15,07,14,4.60
2010,04,15,07,15,4.60
2010,04,15,07,16,4.70
2010,04,15,07,17,4.70
2010,04,15,07,18,4.70
2010,04,15,07,19,4.80
2010,04,15,07,20,4.90
2010,04,15,07,21,5.00
2010,04,15,07,22,5.00
2010,04,15,07,23,5.10
2010,04,15,07,24,5.10
2010,04,15,07,25,5.10
2010,04,15,07,26,5.10
2010,04,15,07,27,5.20
2010,04,15,07,28,5.20
2010,04,15,07,29,5.30
2010,04,15,07,30,5.30
2010,04,15,07,31,5.40
2010,04,15,07,32,5.50
2010,04,15,07,33,5.50
2010,04,15,07,34,5.50
2010,04,15,07,35,5.60
2010,04,15,07,36,5.80
2010,04,15,07,37,5.90
2010,04,15,07,38,6.00
2010,04,15,07,39,6.10
2010,04,15,07,40,6.10
2010,04,15,07,41,6.20
2010,04,15,07,42,6.20
2010,04,15,07,43,6.30
2010,04,15,07,44,6.30
2010,04,15,07,45,6.30
2010,04,15,07,46,6.40
2010,04,15,07,47,6.40
2010,04,15,07,48,6.50
2010,04,15,07,49,6.60
2010,04,15,07,50,6.60
2010,04,15,07,51,6.70
2010,04,15,07,52,6.70
2010,04,15,07,53,6.80
2010,04,15,07,54,6.80
2010,04,15,07,55,6.90
2010,04,15,07,56,6.90
2010,04,15,07,57,7.00
2010,04,15,07,58,7.10
2010,04,15,07,59,7.20
2010,04,15,08,00,7.20
2010,04,15,08,01,7.20
2010,04,15,08,02,7.30
2010,04,15,08,03,7.50
2010,04,15,08,04,7.60
2010,04,15,08,05,7.60
2010,04,15,08,06,7.80
2010,04,15,08,07,7.90
2010,04,15,08,08,8.00
2010,04,15,08,09,8.10
2010,04,15,08,10,8.20
2010,04,15,08,11,8.30
2010,04,15,08,12,8.40
2010,04,15,08,13,8.50
2010,04,15,08,14,8.50
2010,04,15,08,15,8.60
2010,04,15,08,16,8.70
2010,04,15,08,17,8.70
2010,04,15,08,18,8.80
2010,04,15,08,19,8.90
2010,04,15,08,20,9.00
2010,04,15,08,21,9.00
2010,04,15,08,22,9.10
2010,04,15,08,23,9.20
2010,04,15,08,24,9.30
2010,04,15,08,25,9.40
2010,04,15,08,26,9.40
2010,04,15,08,27,9.50
2010,04,15,08,28,9.60
2010,04,15,08,29,9.70
2010,04,15,08,30,9.80
2010,04,15,08,31,9.80
2010,04,15,08,32,9.90
2010,04,15,08,33,10.00
2010,04,15,08,34,10.10
2010,04,15,08,35,10.20
2010,04,15,08,36,10.20
2010,04,15,08,37,10.20
2010,04,15,08,38,10.30
2010,04,15,08,39,10.30
2010,04,15,08,40,10.30
2010,04,15,08,41,10.30
2010,04,15,08,42,10.30
2010,04,15,08,43,10.30
2010,04,15,08,44,10.40
2010,04,15,08,45,10.40
2010,04,15,08,46,10.50
2010,04,15,08,47,10.50
2010,04,15,08,48,10.60
2010,04,15,08,49,10.60
2010,04,15,08,50,10.60
2010,04,15,08,51,10.70
2010,04,15,08,52,10.70
2010,04,15,08,53,10.80
2010,04,15,08,54,10.90
2010,04,15,08,55,10.90
2010,04,15,08,56,11.00
2010,04,15,08,57,11.00
2010,04,15,08,58,11.10
2010,04,15,08,59,11.10
2010,04,15,09,00,11.10
2010,04,15,09,01,11.10
2010,04,15,09,02,11.10
2010,04,15,09,03,11.10
2010,04,15,09,04,11.10
2010,04,15,09,05,11.20
2010,04,15,09,06,11.20
2010,04,15,09,07,11.30
2010,04,15,09,08,11.30
2010,04,15,09,09,11.30
2010,04,15,09,10,11.40
2010,04,15,09,11,11.40
2010,04,15,09,12,11.40
2010,04,15,09,13,11.50
2010,04,15,09,14,11.50
2010,04,15,09,15,11.50
2010,04,15,09,16,11.50
2010,04,15,09,17,11.50
2010,04,15,09,18,11.40
2010,04,15,09,19,11.40
2010,04,15,09,20,11.40
2010,04,15,09,21,11.40
2010,04,15,09,22,11.30
2010,04,15,09,23,11.30
2010,04,15,09,24,11.30
2010,04,15,09,25,11.30
2010,04,15,09,26,11.20
2010,04,15,09,27,11.20
2010,04,15,09,28,11.20
2010,04,15,09,29,11.20
2010,04,15,09,30,11.10
2010,04,15,09,31,11.20
2010,04,15,09,32,11.10
2010,04,15,09,33,11.10
2010,04,15,09,34,11.10
2010,04,15,09,35,11.10
2010,04,15,09,36,11.00
2010,04,15,09,37,11.00
2010,04,15,09,38,11.00
2010,04,15,09,39,11.00
2010,04,15,09,40,10.90
2010,04,15,09,41,10.90
2010,04,15,09,42,10.80
2010,04,15,09,43,10.80
2010,04,15,09,44,10.80
2010,04,15,09,45,10.80
2010,04,15,09,46,10.80
2010,04,15,09,47,10.80
2010,04,15,09,48,10.80
2010,04,15,09,49,10.90
2010,04,15,09,50,10.90
2010,04,15,09,51,10.90
2010,04,15,09,52,10.90
2010,04,15,09,53,10.90
2010,04,15,09,54,11.00
2010,04,15,09,55,11.00
2010,04,15,09,56,11.00
2010,04,15,09,57,11.00
2010,04,15,09,58,11.00
2010,04,15,09,59,11.10
2010,04,15,10,00,11.10
2010,04,15,10,01,11.10
2010,04,15,10,02,11.20
2010,04,15,10,03,11.20
2010,04,15,10,04,11.20
2010,04,15,10,05,11.30
2010,04,15,10,06,11.30
2010,04,15,10,07,11.30
2010,04,15,10,08,11.20
2010,04,15,10,09,11.20
2010,04,15,10,10,11.20
2010,04,15,10,11,11.10
2010,04,15,10,12,11.10
2010,04,15,10,13,11.00
2010,04,15,10,14,10.90
2010,04,15,10,15,10.80
2010,04,15,10,16,10.80
2010,04,15,10,17,10.80
2010,04,15,10,18,10.80
2010,04,15,10,19,10.90
2010,04,15,10,20,11.00
2010,04,15,10,21,11.00
2010,04,15,10,22,11.10
2010,04,15,10,23,11.10
2010,04,15,10,24,11.20
2010,04,15,10,25,11.30
2010,04,15,10,26,11.30
2010,04,15,10,27,11.40
2010,04,15,10,28,11.50
2010,04,15,10,29,11.50
2010,04,15,10,30,11.60
2010,04,15,10,31,11.60
2010,04,15,10,32,11.60
2010,04,15,10,33,11.60
2010,04,15,10,34,11.60
2010,04,15,10,35,11.60
2010,04,15,10,36,11.60
2010,04,15,10,37,11.60
2010,04,15,10,38,11.60
2010,04,15,10,39,11.50
2010,04,15,10,40,11.50
2010,04,15,10,41,11.50
2010,04,15,10,42,11.50
2010,04,15,10,43,11.40
2010,04,15,10,44,11.50
2010,04,15,10,45,11.50
2010,04,15,10,46,11.60
2010,04,15,10,47,11.60
2010,04,15,10,48,11.60
2010,04,15,10,49,11.60
2010,04,15,10,50,11.50
2010,04,15,10,51,11.50
2010,04,15,10,52,11.40
2010,04,15,10,53,11.30
2010,04,15,10,54,11.20
2010,04,15,10,55,11.20
2010,04,15,10,56,11.20
2010,04,15,10,57,11.10
2010,04,15,10,58,11.10
2010,04,15,10,59,11.10
2010,04,15,11,00,11.10
2010,04,15,11,01,11.20
2010,04,15,11,02,11.30
2010,04,15,11,03,11.40
2010,04,15,11,04,11.40
2010,04,15,11,05,11.50
2010,04,15,11,06,11.50
2010,04,15,11,07,11.50
2010,04,15,11,08,11.40
2010,04,15,11,09,11.40
2010,04,15,11,10,11.30
2010,04,15,11,11,11.30
2010,04,15,11,12,11.30
2010,04,15,11,13,11.30
2010,04,15,11,14,11.20
2010,04,15,11,15,11.20
2010,04,15,11,16,11.10
2010,04,15,11,17,11.10
2010,04,15,11,18,11.10
2010,04,15,11,19,11.10
2010,04,15,11,20,11.10
2010,04,15,11,21,11.10
2010,04,15,11,22,11.00
2010,04,15,11,23,11.10
2010,04,15,11,24,11.10
2010,04,15,11,25,11.20
2010,04,15,11,26,11.30
2010,04,15,11,27,11.30
2010,04,15,11,28,11.30
2010,04,15,11,29,11.30
2010,04,15,11,30,11.40
2010,04,15,11,31,11.40
2010,04,15,11,32,11.40
2010,04,15,11,33,11.40
2010,04,15,11,34,11.40
2010,04,15,11,35,11.40
2010,04,15,11,36,11.40
2010,04,15,11,37,11.40
2010,04,15,11,38,11.40
2010,04,15,11,39,11.40
2010,04,15,11,40,11.40
2010,04,15,11,41,11.40
2010,04,15,11,42,11.40
2010,04,15,11,43,11.50
2010,04,15,11,44,11.50
2010,04,15,11,45,11.50
2010,04,15,11,46,11.60
2010,04,15,11,47,11.60
2010,04,15,11,48,11.60
2010,04,15,11,49,11.60
2010,04,15,11,50,11.60
2010,04,15,11,51,11.50
2010,04,15,11,52,11.50
2010,04,15,11,53,11.40
2010,04,15,11,54,11.40
2010,04,15,11,55,11.40
2010,04,15,11,56,11.50
2010,04,15,11,57,11.50
2010,04,15,11,58,11.40
2010,04,15,11,59,11.40
2010,04,15,12,00,11.30
2010,04,15,12,01,11.20
2010,04,15,12,02,11.20
2010,04,15,12,03,11.20
2010,04,15,12,04,11.30
2010,04,15,12,05,11.30
2010,04,15,12,06,11.30
2010,04,15,12,07,11.40
2010,04,15,12,08,11.40
2010,04,15,12,09,11.40
2010,04,15,12,10,11.50
2010,04,15,12,11,11.50
2010,04,15,12,12,11.60
2010,04,15,12,13,11.60
2010,04,15,12,14,11.60
2010,04,15,12,15,11.70
2010,04,15,12,16,11.80
2010,04,15,12,17,11.80
2010,04,15,12,18,11.90
2010,04,15,12,19,11.90
2010,04,15,12,20,11.90
2010,04,15,12,21,11.90
2010,04,15,12,22,11.80
2010,04,15,12,23,11.80
2010,04,15,12,24,11.70
2010,04,15,12,25,11.60
2010,04,15,12,26,11.50
2010,04,15,12,27,11.40
2010,04,15,12,28,11.40
2010,04,15,12,29,11.50
2010,04,15,12,30,11.60
2010,04,15,12,31,11.60
2010,04,15,12,32,11.70
2010,04,15,12,33,11.80
2010,04,15,12,34,11.80
2010,04,15,12,35,11.80
2010,04,15,12,36,11.70
2010,04,15,12,37,11.60
2010,04,15,12,38,11.50
2010,04,15,12,39,11.40
2010,04,15,12,40,11.40
2010,04,15,12,41,11.30
2010,04,15,12,42,11.30
2010,04,15,12,43,11.30
2010,04,15,12,44,11.20
2010,04,15,12,45,11.20
2010,04,15,12,46,11.20
2010,04,15,12,47,11.20
2010,04,15,12,48,11.20
2010,04,15,12,49,11.30
2010,04,15,12,50,11.30
2010,04,15,12,51,11.30
2010,04,15,12,52,11.30
2010,04,15,12,53,11.40
2010,04,15,12,54,11.40
2010,04,15,12,55,11.40
2010,04,15,12,56,11.40
2010,04,15,12,57,11.50
2010,04,15,12,58,11.60
2010,04,15,12,59,11.60
2010,04,15,13,00,11.60
2010,04,15,13,01,11.60
2010,04,15,13,02,11.60
2010,04,15,13,03,11.50
2010,04,15,13,04,11.40
2010,04,15,13,05,11.40
2010,04,15,13,06,11.40
2010,04,15,13,07,11.40
2010,04,15,13,08,11.40
2010,04,15,13,09,11.50
2010,04,15,13,10,11.50
2010,04,15,13,11,11.60
2010,04,15,13,12,11.60
2010,04,15,13,13,11.60
2010,04,15,13,14,11.60
2010,04,15,13,15,11.60
2010,04,15,13,16,11.70
2010,04,15,13,17,11.70
2010,04,15,13,18,11.60
2010,04,15,13,19,11.60
2010,04,15,13,20,11.60
2010,04,15,13,21,11.70
2010,04,15,13,22,11.80
2010,04,15,13,23,11.80
2010,04,15,13,24,11.90
2010,04,15,13,25,12.00
2010,04,15,13,26,12.10
2010,04,15,13,27,12.20
2010,04,15,13,28,12.20
2010,04,15,13,29,12.30
2010,04,15,13,30,12.40
2010,04,15,13,31,12.50
2010,04,15,13,32,12.70
2010,04,15,13,33,12.80
2010,04,15,13,34,12.90
2010,04,15,13,35,13.00
2010,04,15,13,36,13.10
2010,04,15,13,37,13.20
2010,04,15,13,38,13.30
2010,04,15,13,39,13.30
2010,04,15,13,40,13.40
2010,04,15,13,41,13.40
2010,04,15,13,42,13.50
2010,04,15,13,43,13.60
2010,04,15,13,44,13.60
2010,04,15,13,45,13.60
2010,04,15,13,46,13.50
2010,04,15,13,47,13.40
2010,04,15,13,48,13.30
2010,04,15,13,49,13.20
2010,04,15,13,50,13.10
2010,04,15,13,51,13.00
2010,04,15,13,52,12.90
2010,04,15,13,53,12.80
2010,04,15,13,54,12.80
2010,04,15,13,55,12.80
2010,04,15,13,56,12.80
2010,04,15,13,57,12.90
2010,04,15,13,58,13.00
2010,04,15,13,59,13.00
2010,04,15,14,00,13.10
2010,04,15,14,01,13.20
2010,04,15,14,02,13.30
2010,04,15,14,03,13.40
2010,04,15,14,04,13.40
2010,04,15,14,05,13.50
2010,04,15,14,06,13.50
2010,04,15,14,07,13.60
2010,04,15,14,08,13.60
2010,04,15,14,09,13.70
2010,04,15,14,10,13.80
2010,04,15,14,11,13.90
2010,04,15,14,12,14.10
2010,04,15,14,13,14.30
2010,04,15,14,14,14.50
2010,04,15,14,15,14.60
2010,04,15,14,16,14.80
2010,04,15,14,17,14.90
2010,04,15,14,18,15.00
2010,04,15,14,19,15.00
2010,04,15,14,20,15.00
2010,04,15,14,21,15.00
2010,04,15,14,22,15.00
2010,04,15,14,23,15.20
2010,04,15,14,24,15.30
2010,04,15,14,25,15.30
2010,04,15,14,26,15.30
2010,04,15,14,27,15.40
2010,04,15,14,28,15.40
2010,04,15,14,29,15.40
2010,04,15,14,30,15.40
2010,04,15,14,31,15.40
2010,04,15,14,32,15.20
2010,04,15,14,33,15.00
2010,04,15,14,34,15.00
2010,04,15,14,35,14.90
2010,04,15,14,36,14.80
2010,04,15,14,37,14.70
2010,04,15,14,38,14.60
2010,04,15,14,39,14.60
2010,04,15,14,40,14.50
2010,04,15,14,41,14.50
2010,04,15,14,42,14.60
2010,04,15,14,43,14.60
2010,04,15,14,44,14.70
2010,04,15,14,45,14.80
2010,04,15,14,46,15.00
2010,04,15,14,47,15.00
2010,04,15,14,48,15.00
2010,04,15,14,49,15.00
2010,04,15,14,50,15.00
2010,04,15,14,51,15.00
2010,04,15,14,52,15.10
2010,04,15,14,53,15.10
2010,04,15,14,54,15.10
2010,04,15,14,55,15.10
2010,04,15,14,56,15.20
2010,04,15,14,57,15.20
2010,04,15,14,58,15.20
2010,04,15,14,59,15.20
2010,04,15,15,00,15.20
2010,04,15,15,01,15.20
2010,04,15,15,02,15.20
2010,04,15,15,03,15.20
2010,04,15,15,04,15.20
2010,04,15,15,05,15.20
2010,04,15,15,06,15.30
2010,04,15,15,07,15.30
2010,04,15,15,08,15.30
2010,04,15,15,09,15.30
2010,04,15,15,10,15.30
2010,04,15,15,11,15.30
2010,04,15,15,12,15.30
2010,04,15,15,13,15.30
2010,04,15,15,14,15.30
2010,04,15,15,15,15.30
2010,04,15,15,16,15.20
2010,04,15,15,17,15.20
2010,04,15,15,18,15.10
2010,04,15,15,19,15.10
2010,04,15,15,20,15.00
2010,04,15,15,21,15.00
2010,04,15,15,22,15.00
2010,04,15,15,23,15.00
2010,04,15,15,24,15.00
2010,04,15,15,25,15.00
2010,04,15,15,26,15.00
2010,04,15,15,27,15.00
2010,04,15,15,28,15.00
2010,04,15,15,29,15.00
2010,04,15,15,30,15.00
2010,04,15,15,31,15.00
2010,04,15,15,32,15.10
2010,04,15,15,33,15.20
2010,04,15,15,34,15.20
2010,04,15,15,35,15.30
2010,04,15,15,36,15.30
2010,04,15,15,37,15.40
2010,04,15,15,38,15.40
2010,04,15,15,39,15.50
2010,04,15,15,40,15.50
2010,04,15,15,41,15.60
2010,04,15,15,42,15.60
2010,04,15,15,43,15.60
2010,04,15,15,44,15.70
2010,04,15,15,45,15.70
2010,04,15,15,46,15.70
2010,04,15,15,47,15.80
2010,04,15,15,48,15.80
2010,04,15,15,49,15.80
2010,04,15,15,50,15.90
2010,04,15,15,51,15.90
2010,04,15,15,52,16.00
2010,04,15,15,53,16.10
2010,04,15,15,54,16.10
2010,04,15,15,55,16.10
2010,04,15,15,56,16.10
2010,04,15,15,57,16.10
2010,04,15,15,58,16.10
2010,04,15,15,59,16.00
2010,04,15,16,00,15.90
2010,04,15,16,01,15.80
2010,04,15,16,02,15.70
2010,04,15,16,03,15.60
2010,04,15,16,04,15.60
2010,04,15,16,05,15.50
2010,04,15,16,06,15.40
2010,04,15,16,07,15.40
2010,04,15,16,08,15.40
2010,04,15,16,09,15.40
2010,04,15,16,10,15.40
2010,04,15,16,11,15.40
2010,04,15,16,12,15.40
2010,04,15,16,13,15.40
2010,04,15,16,14,15.40
2010,04,15,16,15,15.40
2010,04,15,16,16,15.40
2010,04,15,16,17,15.40
2010,04,15,16,18,15.40
2010,04,15,16,19,15.40
2010,04,15,16,20,15.50
2010,04,15,16,21,15.50
2010,04,15,16,22,15.30
2010,04,15,16,23,14.90
2010,04,15,16,24,14.50
2010,04,15,16,25,14.20
2010,04,15,16,26,13.80
2010,04,15,16,27,13.40
2010,04,15,16,28,13.20
2010,04,15,16,29,13.00
2010,04,15,16,30,12.80
2010,04,15,16,31,12.70
2010,04,15,16,32,12.70
2010,04,15,16,33,12.60
2010,04,15,16,34,12.60
2010,04,15,16,35,12.60
2010,04,15,16,36,12.60
2010,04,15,16,37,12.60
2010,04,15,16,38,12.60
2010,04,15,16,39,12.60
2010,04,15,16,40,12.60
2010,04,15,16,41,12.50
2010,04,15,16,42,12.50
2010,04,15,16,43,12.40
2010,04,15,16,44,12.40
2010,04,15,16,45,12.30
2010,04,15,16,46,12.20
2010,04,15,16,47,12.10
2010,04,15,16,48,12.00
2010,04,15,16,49,12.00
2010,04,15,16,50,11.90
2010,04,15,16,51,11.90
2010,04,15,16,52,11.90
2010,04,15,16,53,11.80
2010,04,15,16,54,11.80
2010,04,15,16,55,11.80
2010,04,15,16,56,11.90
2010,04,15,16,57,11.90
2010,04,15,16,58,11.90
2010,04,15,16,59,11.90
2010,04,15,17,00,12.00
2010,04,15,17,01,12.00
2010,04,15,17,02,12.00
2010,04,15,17,03,12.00
2010,04,15,17,04,12.00
2010,04,15,17,05,11.90
2010,04,15,17,06,11.80
2010,04,15,17,07,11.70
2010,04,15,17,08,11.60
2010,04,15,17,09,11.60
2010,04,15,17,10,11.50
2010,04,15,17,11,11.50
2010,04,15,17,12,11.60
2010,04,15,17,13,11.60
2010,04,15,17,14,11.60
2010,04,15,17,15,11.70
2010,04,15,17,16,11.70
2010,04,15,17,17,11.70
2010,04,15,17,18,11.70
2010,04,15,17,19,11.70
2010,04,15,17,20,11.70
2010,04,15,17,21,11.70
2010,04,15,17,22,11.70
2010,04,15,17,23,11.80
2010,04,15,17,24,11.80
2010,04,15,17,25,11.80
2010,04,15,17,26,11.90
2010,04,15,17,27,11.90
2010,04,15,17,28,12.00
2010,04,15,17,29,12.10
2010,04,15,17,30,12.10
2010,04,15,17,31,12.20
2010,04,15,17,32,12.20
2010,04,15,17,33,12.30
2010,04,15,17,34,12.30
2010,04,15,17,35,12.40
2010,04,15,17,36,12.40
2010,04,15,17,37,12.50
2010,04,15,17,38,12.50
2010,04,15,17,39,12.60
2010,04,15,17,40,12.60
2010,04,15,17,41,12.60